TimeCDT,TemperatureF,Dew PointF,Humidity,Sea Level PressureIn,VisibilityMPH,Wind Direction,Wind SpeedMPH,Gust SpeedMPH,PrecipitationIn,Events,Conditions,WindDirDegrees,DateUTC
12:52 AM,41.0,39.9,96,29.83,10.0,WSW,4.6,-,N/A,,Clear,250,2013-10-07 05:52:00
1:52 AM,41.0,39.9,96,29.85,10.0,WSW,5.8,-,N/A,,Clear,250,2013-10-07 06:52:00
2:44 AM,44.6,42.8,93,29.83,9.0,West,5.8,-,N/A,,Mostly Cloudy,260,2013-10-07 07:44:00
2:52 AM,45.0,44.1,97,29.85,10.0,West,6.9,-,N/A,,Mostly Cloudy,260,2013-10-07 07:52:00
3:05 AM,46.4,44.6,93,29.84,10.0,West,5.8,-,N/A,,Overcast,270,2013-10-07 08:05:00
3:41 AM,46.4,44.6,93,29.84,9.0,West,8.1,-,N/A,,Overcast,260,2013-10-07 08:41:00
3:52 AM,46.9,46.0,97,29.85,9.0,West,6.9,-,N/A,,Overcast,260,2013-10-07 08:52:00
4:28 AM,48.2,46.4,93,29.86,8.0,West,8.1,-,N/A,,Overcast,280,2013-10-07 09:28:00
4:41 AM,48.2,46.4,93,29.85,10.0,West,8.1,-,N/A,,Overcast,280,2013-10-07 09:41:00
4:52 AM,48.9,46.9,93,29.87,10.0,West,8.1,-,N/A,,Overcast,280,2013-10-07 09:52:00
5:52 AM,48.9,45.0,86,29.90,10.0,NW,10.4,-,N/A,,Mostly Cloudy,310,2013-10-07 10:52:00
6:08 AM,48.2,44.6,87,29.90,10.0,WNW,8.1,-,N/A,,Scattered Clouds,300,2013-10-07 11:08:00
6:52 AM,44.1,41.0,89,29.94,10.0,West,4.6,-,N/A,,Clear,270,2013-10-07 11:52:00
7:52 AM,45.0,43.0,93,29.97,10.0,West,6.9,-,N/A,,Clear,280,2013-10-07 12:52:00
8:52 AM,50.0,46.0,86,29.99,10.0,West,9.2,-,N/A,,Clear,280,2013-10-07 13:52:00
9:52 AM,55.0,46.0,72,30.00,10.0,WNW,10.4,-,N/A,,Clear,290,2013-10-07 14:52:00
10:52 AM,59.0,45.0,60,30.02,10.0,West,9.2,-,N/A,,Clear,280,2013-10-07 15:52:00
11:52 AM,64.0,44.1,48,30.02,10.0,WSW,6.9,-,N/A,,Clear,240,2013-10-07 16:52:00
12:52 PM,68.0,43.0,40,30.00,10.0,West,11.5,18.4,N/A,,Clear,260,2013-10-07 17:52:00
1:52 PM,70.0,41.0,35,29.99,10.0,West,13.8,-,N/A,,Clear,260,2013-10-07 18:52:00
2:52 PM,72.0,41.0,33,29.98,10.0,West,13.8,19.6,N/A,,Clear,260,2013-10-07 19:52:00
3:52 PM,73.0,39.9,30,29.98,10.0,West,13.8,20.7,N/A,,Clear,260,2013-10-07 20:52:00
4:52 PM,72.0,37.9,29,29.98,10.0,West,13.8,21.9,N/A,,Clear,280,2013-10-07 21:52:00
5:52 PM,70.0,39.0,32,29.99,10.0,West,10.4,-,N/A,,Clear,270,2013-10-07 22:52:00
6:52 PM,62.1,41.0,46,30.00,10.0,West,6.9,-,N/A,,Clear,260,2013-10-07 23:52:00
7:52 PM,54.0,42.1,64,30.03,10.0,NNW,3.5,-,N/A,,Clear,330,2013-10-08 00:52:00
8:52 PM,50.0,44.1,80,30.05,10.0,Calm,Calm,-,N/A,,Clear,0,2013-10-08 01:52:00
9:52 PM,50.0,42.1,74,30.07,10.0,Calm,Calm,-,N/A,,Clear,0,2013-10-08 02:52:00
10:52 PM,48.0,43.0,83,30.08,10.0,SSW,3.5,-,N/A,,Clear,210,2013-10-08 03:52:00
11:52 PM,48.9,43.0,80,30.09,10.0,Calm,Calm,-,N/A,,Clear,0,2013-10-08 04:52:00